Skip Navigation Links
NOAA logo - Click to go to the NOAA homepage
NOAA's National Weather Service
Alaska Aviation Weather Unit
  NWS logo - Click to go to the NWS homepage
Left Navbar Graphic     10 AKDT = 18 GMT

   
NOAA is celebrating 200 years of science, service, and stewardship. Visit the NOAA 200th celebration Web site to learn more.
USA.gov is the U.S. Government's official Web portal to all Federal, state and local government Web resources and services.
Facebook
NWS on Facebook

Important Change Regarding the AAWU Web Presence

 

Over the last several months, the AAWU has been working to navigate its webpages to a nationally supported server. Security, as well as other needs, have necessitated the change.  We have been given an extension for the site changeover while we diligently work at addressing feedback received. As of July 14, 2017, aawu.arh.noaa.gov will be discontinued. The new AAWU web address is weather.gov/aawu. It is now live and will run in-parallel with the old site until it is discontinued on July 14, 2017. Please continue to send any feedback or questions regarding the new webpages to nws.ar.aawu.webauthors@noaa.gov.  Thank you for your patience during this time of transition.
AAWU Home :: Display TAF Add Bookmark
SPECI PATQ 261213Z AUTO 24011KT 10SM SCT025 BKN044 M01/M02 A3010 RMK AO2
     FZRANO TSNO=

METAR PATQ 261256Z AUTO 24011KT 10SM BKN023 BKN034 OVC042 M02/M02
     A3010=

METAR PATQ 261356Z AUTO 24011KT 10SM BKN023 OVC038 M02/M02 A3010=

SPECI PATQ 261403Z AUTO 24011KT 10SM SCT023 OVC036 M02/M03 A3010 RMK AO2
     FZRANO TSNO=

METAR PATQ 261456Z AUTO 25012KT 10SM SCT023 OVC040 M02/M02 A3010=

METAR PATQ 261556Z AUTO 23011KT 10SM BKN034 M02/M02 A3010=

METAR PATQ 261656Z AUTO 23011KT 10SM OVC034 M02/M02 A3011=

SPECI PATQ 261727Z AUTO 24011KT 10SM BKN020 OVC034 M02/M02 A3011 RMK AO2
     FZRANO TSNO=

PATQ 261736Z AUTO 23009KT 10SM SCT020 OVC034 M02/M02 A3011=

METAR PATQ 261756Z AUTO 23009KT 10SM OVC034 M02/M02 A3011=


NOAA's National Weather Service
Alaska Aviation Weather Unit
6930 Sand Lake Road
Anchorage, AK 99502-1845
Disclaimer
Credits
Glossary
Privacy Policy
About Us
Career Opportunities
Contact AAWU Internet Services Site last modified: April, 17th 2012